TimeEDT,TemperatureF,Dew PointF,Humidity,Sea Level PressureIn,VisibilityMPH,Wind Direction,Wind SpeedMPH,Gust SpeedMPH,PrecipitationIn,Events,Conditions,WindDirDegrees,DateUTC
12:54 AM,44.1,18.0,35,30.03,10.0,SSE,8.1,-,N/A,,Overcast,150,2013-04-07 04:54:00
1:54 AM,48.0,18.0,30,29.98,10.0,South,9.2,-,N/A,,Overcast,170,2013-04-07 05:54:00
2:54 AM,50.0,19.0,29,29.95,10.0,South,15.0,25.3,0.00,Rain,Light Rain,180,2013-04-07 06:54:00
3:54 AM,50.0,19.0,29,29.91,10.0,South,13.8,20.7,0.00,,Overcast,180,2013-04-07 07:54:00
4:54 AM,50.0,19.9,31,29.90,10.0,SSE,10.4,-,N/A,,Overcast,160,2013-04-07 08:54:00
5:54 AM,51.1,21.0,31,29.87,10.0,South,13.8,21.9,N/A,,Mostly Cloudy,190,2013-04-07 09:54:00
6:54 AM,51.1,21.9,32,29.86,10.0,South,15.0,24.2,N/A,,Overcast,190,2013-04-07 10:54:00
7:54 AM,52.0,24.1,34,29.83,10.0,SSW,23.0,29.9,N/A,,Overcast,200,2013-04-07 11:54:00
8:54 AM,53.1,25.0,34,29.81,10.0,South,21.9,32.2,N/A,,Mostly Cloudy,190,2013-04-07 12:54:00
9:54 AM,57.9,28.0,32,29.78,10.0,SSW,17.3,25.3,N/A,,Mostly Cloudy,200,2013-04-07 13:54:00
10:54 AM,61.0,30.0,31,29.76,10.0,SSW,19.6,29.9,N/A,,Overcast,200,2013-04-07 14:54:00
11:54 AM,63.0,32.0,31,29.75,10.0,SSW,23.0,35.7,N/A,,Mostly Cloudy,210,2013-04-07 15:54:00
12:54 PM,69.1,35.1,29,29.73,10.0,SSW,15.0,28.8,N/A,,Mostly Cloudy,210,2013-04-07 16:54:00
1:54 PM,71.1,37.9,30,29.70,10.0,SW,32.2,43.7,N/A,,Scattered Clouds,230,2013-04-07 17:54:00
2:54 PM,68.0,42.1,39,29.73,10.0,West,26.5,36.8,N/A,,Scattered Clouds,270,2013-04-07 18:54:00
3:54 PM,66.9,43.0,42,29.76,10.0,West,24.2,40.3,N/A,,Partly Cloudy,260,2013-04-07 19:54:00
4:54 PM,66.0,41.0,40,29.79,10.0,West,28.8,43.7,N/A,,Scattered Clouds,260,2013-04-07 20:54:00
5:42 PM,62.6,41.0,45,29.81,10.0,NW,17.3,-,N/A,,Partly Cloudy,320,2013-04-07 21:42:00
5:54 PM,60.1,39.9,47,29.83,10.0,NNW,17.3,27.6,N/A,,Partly Cloudy,330,2013-04-07 21:54:00
6:54 PM,55.0,37.9,53,29.88,10.0,WNW,16.1,24.2,N/A,,Partly Cloudy,300,2013-04-07 22:54:00
7:54 PM,51.1,36.0,56,29.93,10.0,WNW,15.0,-,N/A,,Partly Cloudy,300,2013-04-07 23:54:00
8:54 PM,48.9,35.1,59,29.98,10.0,WNW,6.9,-,N/A,,Scattered Clouds,300,2013-04-08 00:54:00
9:54 PM,46.9,33.1,59,30.02,10.0,NW,16.1,19.6,N/A,,Overcast,310,2013-04-08 01:54:00
10:54 PM,45.0,32.0,60,30.04,10.0,WNW,10.4,-,N/A,,Overcast,290,2013-04-08 02:54:00
11:54 PM,44.1,32.0,63,30.05,10.0,NW,9.2,-,N/A,,Overcast,310,2013-04-08 03:54:00